User: anonymous   Login
Location: Unspecified
(0.0000°N, 0.0000°E)
Time: 01:37:44
(UTC+00:00)
Language:

deb Explorer IX - Orbit

View from above orbital plane
View from above orbital plane
View from above satellite
View from above satellite

Ground track
Ground track

The orbit data is extracted from the following two-line orbital elements,

1 00085U 61004C   18111.97659786  .00002047  00000-0  47921-3 0  9992
2 00085  38.7751  71.5594 0389174 301.4296  54.8948 14.18382228819133
Epoch (UTC): 21 April 2018 23:26:18
Eccentricity: 0.0389174
inclination: 38.7751°
perigee height: 550 km
apogee height: 1111 km
right ascension of ascending node: 71.5594°
argument of perigee: 301.4296°
revolutions per day: 14.18382228
mean anomaly at epoch: 54.8948°
orbit number at epoch: 81913

The dashed part of the orbit path shows where the satellite is in the earth's shadow,  

DLR